Station DTLM4 - 9075099 - De Tour Village, MI Image indicating link to RSS feed of recent meteorological observations for station DTLM4


Conditions at DTLM4 as of
(7:18 pm EDT)
2318 GMT on 07/18/2024:
     

Click on the graph icon in the table below to see a time series plot of the last five days of that observation.

5-day plot - Wind Direction Wind Direction (WDIR):NNW ( 330 deg true )
5-day plot - Wind Speed Wind Speed (WSPD): 9.9 kts
5-day plot - Wind Gust Wind Gust (GST): 12.0 kts
5-day plot - Atmospheric Pressure Atmospheric Pressure (PRES):30.07 in
5-day plot - Air Temperature Air Temperature (ATMP): 68.5 °F
5-day plot - Water Temperature Water Temperature (WTMP): 65.5 °F
5-day plot - Dew Point Dew Point (DEWP): 50.5 °F
5-day plot - Wind Speed at 10 Meters Wind Speed at 10 meters (WSPD10M): 9.7 kts
5-day plot - Wind Speed at 20 Meters Wind Speed at 20 meters (WSPD20M): 9.7 kts
5-day plot -  Wind Speed, Wind Gust and Atmospheric Pressure Combined plot of Wind Speed, Gust, and Air Pressure
NOS Water Level Observation Network Water Level
Previous observations
TIME
(EDT)
5-day plot - Wind Direction
WDIR
 
5-day plot - Wind Speed
WSPD
kts
5-day plot - Wind Gust
GST
kts
5-day plot - Wave Height
WVHT
ft
5-day plot - Dominant Wave Period
DPD
sec
5-day plot - Average Wave Period
APD
sec
5-day plot - Mean Wave Direction
MWD
 
5-day plot - Atmospheric Pressure
PRES
in
5-day plot - Pressure Tendency
PTDY
in
5-day plot - Air Temperature
ATMP
°F
5-day plot - Water Temperature
WTMP
°F
5-day plot - Dew Point
DEWP
°F
5-day plot - Salinity
SAL
psu
5-day plot - Visibility
VIS
nmi
5-day plot - Tide (above MLLW)
TIDE
ft
2024-07-18 07:12 pmNNW 6.0 13.0----30.07- 68.7 65.5 50.9---
2024-07-18 07:06 pmNNW 7.0 13.0----30.07- 68.9 65.5 51.6---
2024-07-18 07:00 pmNNW 8.0 13.0----30.07+0.00 69.1 65.3 50.4---
2024-07-18 06:54 pmNNW 9.9 15.9----30.07- 68.7 65.5 50.7---
2024-07-18 06:48 pm N 8.9 12.0----30.07- 68.9 65.1 50.9---
2024-07-18 06:42 pmNNW 8.9 14.0----30.07- 68.9 65.3 50.7---
2024-07-18 06:36 pm N 12.0 14.0----30.07- 68.7 65.3 49.6---
2024-07-18 06:30 pm N 6.0 13.0----30.07- 69.3 65.3 50.9---
2024-07-18 06:24 pm N 8.9 19.0----30.07- 68.9 65.3 50.9---
2024-07-18 06:18 pm N 11.1 17.1----30.07- 68.5 65.1 50.7---
2024-07-18 06:12 pm N 13.0 15.9----30.07- 68.4 65.3 50.7---
2024-07-18 06:06 pm N 11.1 15.9----30.07- 68.7 65.3 50.9---
2024-07-18 06:00 pm N 11.1 15.0----30.07+0.00 68.7 65.3 50.5---
2024-07-18 05:54 pmNNW 11.1 15.0----30.07- 69.3 65.3 49.6---
2024-07-18 05:48 pm N 9.9 14.0----30.07- 69.3 65.3 50.4---
2024-07-18 05:42 pm N 12.0 17.1----30.07- 68.7 65.3 51.1---
2024-07-18 05:36 pm N 12.0 14.0----30.07- 68.9 65.3 50.4---
2024-07-18 05:30 pmNNW 8.0 12.0----30.07- 69.8 65.3 50.2---
2024-07-18 05:24 pmNNW 8.9 13.0----30.07- 69.6 65.3 50.4---
2024-07-18 05:18 pmNNW 7.0 13.0----30.07- 70.0 65.3 50.0---
2024-07-18 05:12 pmNNW 11.1 15.0----30.07- 69.4 65.3 49.3---
2024-07-18 05:06 pmNNW 8.9 15.0----30.07- 69.8 65.3 50.2---
2024-07-18 05:00 pmNNW 9.9 15.9----30.07+0.00 69.4 65.3 49.6---
2024-07-18 04:54 pmNNW 8.0 13.0----30.07- 69.6 65.3 49.6---
2024-07-18 04:48 pmNNW 8.0 14.0----30.07- 69.8 65.3 50.0---
2024-07-18 04:42 pm N 11.1 19.0----30.07- 69.3 65.3 49.6---
2024-07-18 04:36 pmNNW 12.0 15.9----30.07- 69.4 65.3 49.6---
2024-07-18 04:30 pmNNW 9.9 15.9----30.08- 69.6 65.3 50.0---
2024-07-18 04:24 pmNNW 12.0 18.1----30.07- 69.3 65.3 50.0---
2024-07-18 04:18 pmNNW 8.9 15.0----30.08- 69.6 65.3 51.1---
2024-07-18 04:12 pmNNW 11.1 15.9----30.08- 69.1 65.3 50.5---
2024-07-18 04:06 pmNNW 11.1 17.1----30.08- 69.1 65.3 50.4---
2024-07-18 04:00 pmNNW 8.0 15.0----30.07+0.00 69.6 65.3 51.3---
2024-07-18 03:54 pmNNW 8.0 15.9----30.07- 69.8 65.3 51.4---
2024-07-18 03:48 pm N 12.0 15.9----30.07- 69.1 65.3 51.1---
2024-07-18 03:42 pmNNW 7.0 15.0----30.07- 69.8 65.3 52.0---
2024-07-18 03:36 pm NW 6.0 12.0----30.07- 69.8 65.3 51.8---
2024-07-18 03:30 pm NW 8.9 14.0----30.08- 69.4 65.3 51.6---
2024-07-18 03:24 pmNNW 12.0 17.1----30.08- 68.7 65.3 50.5---
2024-07-18 03:18 pmNNW 9.9 15.9----30.08- 69.3 65.3 51.1---
2024-07-18 03:12 pm N 11.1 15.9----30.08- 68.4 65.3 50.7---
2024-07-18 03:06 pmNNW 7.0 14.0----30.08- 69.4 65.3 51.6---
2024-07-18 03:00 pmNNW 9.9 14.0----30.08-0.01 69.3 65.3 51.8---
2024-07-18 02:54 pmNNW 8.0 15.0----30.08- 69.3 65.3 51.3---
2024-07-18 02:48 pmNNW 8.9 13.0----30.08- 68.9 65.3 50.4---
2024-07-18 02:42 pmNNW 7.0 14.0----30.08- 69.1 65.3 52.2---
2024-07-18 02:36 pmNNW 11.1 15.9----30.08- 68.7 65.3 50.7---
2024-07-18 02:30 pm NW 7.0 13.0----30.08- 69.3 65.3 52.2---
2024-07-18 02:24 pmNNW 9.9 14.0----30.08- 68.2 65.3 50.5---
2024-07-18 02:18 pmNNW 7.0 15.9----30.08- 68.9 65.3 50.9---
2024-07-18 02:12 pmNNW 7.0 15.0----30.08- 68.7 65.3 51.4---
2024-07-18 02:06 pmNNW 8.9 13.0----30.08- 68.9 65.5 51.8---
2024-07-18 02:00 pm N 9.9 15.0----30.08+0.00 68.5 65.5 51.1---
2024-07-18 01:54 pm NW 8.0 13.0----30.08- 68.7 65.3 51.3---
2024-07-18 01:48 pmNNW 11.1 15.9----30.08-- 65.3----
2024-07-18 01:42 pmNNW 11.1 18.1----30.08-- 65.3----
2024-07-18 01:36 pmNNW 9.9 14.0----30.08-- 65.5----
2024-07-18 01:30 pmNNW 8.9 15.0----30.07- 67.8 65.5 51.6---
2024-07-18 01:24 pmNNW 8.0 19.0----30.07- 68.2 65.5 52.2---
2024-07-18 01:18 pm N 9.9 13.0----30.07- 67.3 65.3 51.3---
2024-07-18 01:12 pm NW 11.1 15.9----30.08- 67.6 65.3 51.3---
2024-07-18 01:06 pmNNW 8.9 17.1----30.08- 67.8 65.3 52.0---
2024-07-18 01:00 pmNNW 8.0 15.0----30.08-0.01 68.0 65.5 53.1---
2024-07-18 12:54 pmNNW 12.0 18.1----30.08- 67.5 65.5 52.0---
2024-07-18 12:48 pmNNW 13.0 18.1----30.08- 67.3 65.3 52.3---
2024-07-18 12:42 pmNNW 7.0 15.9----30.08- 67.6 65.3 52.5---
2024-07-18 12:36 pmNNW 8.0 15.0----30.08- 67.6 65.3 53.2---
2024-07-18 12:30 pmNNW 8.9 14.0----30.09- 67.5 65.3 51.6---
2024-07-18 12:24 pm NW 8.0 14.0----30.09- 67.5 65.5 51.6---
2024-07-18 12:18 pm NW 8.9 15.9----30.09- 66.9 65.3 52.0---
2024-07-18 12:12 pm NW 8.9 13.0----30.09- 66.9 65.3 52.5---
2024-07-18 12:06 pm N 8.9 14.0----30.09- 66.7 65.3 53.1---
2024-07-18 12:00 pmNNW 7.0 12.0----30.09+0.00 66.9 65.3 52.9---
2024-07-18 11:54 amNNW 12.0 15.9----30.09- 66.2 65.3 52.9---
2024-07-18 11:48 am NW 8.9 18.1----30.09- 66.2 65.3 52.7---
2024-07-18 11:42 amNNW 9.9 14.0----30.09- 66.0 65.3 52.5---
2024-07-18 11:36 amNNW 8.0 14.0----30.09- 65.8 65.3 53.4---
2024-07-18 11:30 amNNW 8.9 15.0----30.09- 65.8 65.3 54.9---
2024-07-18 11:24 amNNW 11.1 17.1----30.09- 65.3 65.3 53.8---
2024-07-18 11:18 am NW 7.0 13.0----30.09- 65.3 65.3 54.5---
2024-07-18 11:12 amNNW 6.0 11.1----30.09- 65.7 65.3 55.4---
2024-07-18 11:06 am NW 8.0 14.0----30.09- 65.3 65.3 55.4---
2024-07-18 11:00 am N 9.9 14.0----30.09+0.01 64.6 65.3 55.9---
2024-07-18 10:54 am NW 7.0 12.0----30.09- 64.6 65.3 55.4---
2024-07-18 10:48 am N 11.1 15.0----30.09- 63.9 65.3 55.2---
2024-07-18 10:42 amNNW 9.9 13.0----30.09- 63.9 65.3 55.8---
2024-07-18 10:36 amNNW 8.0 13.0----30.09- 63.9 65.3 56.3---
2024-07-18 10:30 amNNW 9.9 14.0----30.09- 63.5 65.3 56.7---
2024-07-18 10:24 amNNW 8.9 14.0----30.09- 63.7 65.3 56.5---
2024-07-18 10:18 am N 9.9 13.0----30.09- 63.1 65.3 56.8---
2024-07-18 10:12 am NW 8.0 14.0----30.09- 63.1 65.3 56.7---
2024-07-18 10:06 amNNW 12.0 15.0----30.09- 62.8 65.3 56.1---
2024-07-18 10:00 amNNW 7.0 13.0----30.09+0.03 63.3 65.3 57.7---
2024-07-18 09:54 am N 11.1 15.0----30.09- 62.2 65.3 57.6---
2024-07-18 09:48 am N 9.9 15.0----30.09- 62.2 65.3 57.4---
2024-07-18 09:42 amNNW 7.0 11.1----30.09- 62.2 65.3 58.8---
2024-07-18 09:36 amWNW 7.0 11.1----30.09- 62.1 65.3 59.0---
2024-07-18 09:30 amNNW 8.9 13.0----30.09- 61.5 65.3 58.5---
2024-07-18 09:24 amNNW 7.0 11.1----30.09- 61.3 65.3 58.5---
2024-07-18 09:18 am NW 8.0 13.0----30.09- 61.2 65.3 57.6---
2024-07-18 09:12 am NW 8.0 13.0----30.09- 61.0 65.3 58.3---
2024-07-18 09:06 am NW 7.0 15.9----30.09- 60.8 65.3 58.3---
2024-07-18 09:00 am NW 6.0 12.0----30.09+0.05 60.8 65.3 58.1---
2024-07-18 08:54 am NW 8.0 12.0----30.09- 60.4 65.3 57.4---
2024-07-18 08:48 amNNW 7.0 15.0----30.09- 60.6 65.3 57.4---
2024-07-18 08:42 am NW 6.0 11.1----30.09- 60.4 65.3 57.2---
2024-07-18 08:36 am NW 4.1 8.9----30.09- 60.4 65.5 57.4---
2024-07-18 08:30 amWNW 8.0 12.0----30.09- 59.7 65.5 57.0---
2024-07-18 08:24 am NW 8.0 12.0----30.09- 59.5 65.5 56.8---
2024-07-18 08:18 am NW 4.1 8.0----30.08- 59.7 65.5 57.2---
2024-07-18 08:12 am NW 6.0 13.0----30.08- 59.2 65.5 56.8---
2024-07-18 08:06 am NW 5.1 8.9----30.08- 59.4 65.5 57.2---
2024-07-18 08:00 am NW 5.1 9.9----30.08+0.04 59.2 65.3 57.6---
2024-07-18 07:54 am NW 6.0 12.0----30.07- 59.0 65.3 57.9---
2024-07-18 07:48 am NW 7.0 11.1----30.07-- 65.3----
2024-07-18 07:42 amNNW 6.0 13.0----30.07-- 65.3----
2024-07-18 07:36 am NW 6.0 9.9----30.07-- 65.3----
2024-07-18 07:30 amNNW 5.1 11.1----30.07- 58.6 65.3 58.1---
2024-07-18 07:24 am NW 6.0 11.1----30.06- 58.6 65.3 57.9---
2024-07-18 07:18 am NW 6.0 11.1----30.06- 58.1 65.3 56.8---
2024-07-18 07:12 am NW 6.0 8.9----30.06- 57.4 65.3 55.9---
2024-07-18 07:06 am NW 6.0 11.1----30.06- 57.0 65.3 55.0---
2024-07-18 07:00 amWNW 7.0 11.1----30.06+0.04 56.8 65.3 54.5---
2024-07-18 06:54 amWNW 7.0 11.1----30.06- 56.7 65.3 54.3---
2024-07-18 06:48 amWNW 5.1 11.1----30.06- 56.5 65.3 54.1---
2024-07-18 06:42 amWNW 5.1 9.9----30.06- 56.5 65.3 54.0---
2024-07-18 06:36 amWNW 5.1 8.0----30.06- 56.5 65.3 53.8---
2024-07-18 06:30 am NW 5.1 8.0----30.06- 56.3 65.3 53.8---
2024-07-18 06:24 amWNW 5.1 8.0----30.05- 56.1 65.3 53.8---
2024-07-18 06:18 amWNW 5.1 8.0----30.05- 56.1 65.3 53.6---
2024-07-18 06:12 amWNW 6.0 8.0----30.05- 56.1 65.3 53.6---
2024-07-18 06:06 amWNW 5.1 8.0----30.05- 56.1 65.3 53.8---
2024-07-18 06:00 am NW 4.1 7.0----30.04+0.02 56.1 65.5 54.1---
2024-07-18 05:54 amWNW 5.1 8.0----30.04- 56.1 65.5 54.5---
2024-07-18 05:48 amWNW 5.1 7.0----30.04- 56.1 65.5 54.7---
2024-07-18 05:42 amWNW 5.1 7.0----30.04- 56.3 65.5 54.9---
2024-07-18 05:36 amWNW 4.1 7.0----30.04- 56.5 65.5 55.0---
2024-07-18 05:30 amWNW 4.1 6.0----30.04- 56.7 65.5 55.0---
2024-07-18 05:24 amWNW 4.1 8.0----30.04- 57.0 65.5 55.4---
2024-07-18 05:18 amWNW 4.1 7.0----30.04- 57.0 65.5 55.2---
2024-07-18 05:12 am NW 4.1 8.0----30.04- 57.6 65.5 55.8---
2024-07-18 05:06 am NW 5.1 8.0----30.03- 57.6 65.3 55.6---
2024-07-18 05:00 am NW 5.1 8.9----30.03+0.02 57.6 65.3 55.8---
2024-07-18 04:54 am NW 5.1 8.0----30.03- 57.4 65.3 55.6---
2024-07-18 04:48 amWNW 4.1 7.0----30.03-- 65.3----
2024-07-18 04:42 amWNW 4.1 6.0----30.03-- 65.1----
2024-07-18 04:36 am NW 2.9 5.1----30.03-- 65.3----
2024-07-18 04:30 amWNW 2.9 5.1----30.03- 57.2 65.3 55.2---
2024-07-18 04:24 amWNW 2.9 5.1----30.02- 57.4 65.3 55.0---
2024-07-18 04:18 amWNW 2.9 5.1----30.02- 57.9 65.3 54.9---
2024-07-18 04:12 amWNW 2.9 6.0----30.02- 58.1 65.3 54.7---
2024-07-18 04:06 am W 4.1 5.1----30.02- 58.3 65.3 54.3---
2024-07-18 04:00 amWNW 4.1 6.0----30.02+0.02 58.5 65.3 54.1---
2024-07-18 03:54 amWNW 2.9 7.0----30.02- 58.6 65.3 53.8---
2024-07-18 03:48 amWNW 4.1 6.0----30.02- 58.6 65.3 53.6---
2024-07-18 03:42 am NW 2.9 5.1----30.02- 58.8 65.3 53.6---
2024-07-18 03:36 am NW 2.9 8.0----30.02- 59.0 65.3 54.0---
2024-07-18 03:30 am NW 4.1 7.0----30.02- 59.2 65.3 53.8---
2024-07-18 03:24 amNNW 5.1 7.0----30.02- 59.4 65.3 54.1---
2024-07-18 03:18 am N 5.1 8.0----30.02- 59.4 65.3 54.3---
2024-07-18 03:12 amNNW 5.1 8.9----30.02- 59.2 65.3 54.3---
2024-07-18 03:06 amNNW 6.0 8.9----30.02- 59.2 65.3 54.0---
2024-07-18 03:00 amNNW 6.0 9.9----30.02+0.03 59.2 65.5 54.0---
2024-07-18 02:54 amNNW 6.0 8.9----30.02- 59.2 65.3 54.1---
2024-07-18 02:48 am N 5.1 7.0----30.02- 59.2 65.3 54.9---
2024-07-18 02:42 amNNW 6.0 8.9----30.02- 59.0 65.3 54.7---
2024-07-18 02:36 amNNW 6.0 9.9----30.01- 59.2 65.3 55.2---
2024-07-18 02:30 amNNW 5.1 8.9----30.01- 58.8 65.3 54.5---
2024-07-18 02:24 amNNW 7.0 11.1----30.01- 58.8 65.3 54.3---
2024-07-18 02:18 amNNW 8.0 12.0----30.01- 58.8 65.3 54.3---
2024-07-18 02:12 amNNW 7.0 11.1----30.01- 58.6 65.3 54.3---
2024-07-18 02:06 am N 7.0 11.1----30.01- 58.8 65.3 54.3---
2024-07-18 02:00 amNNW 8.9 12.0----30.01+0.04 59.0 65.3 54.1---
2024-07-18 01:54 am N 8.9 14.0----30.01- 59.5 65.3 55.0---
2024-07-18 01:48 am N 11.1 15.0----30.01- 59.4 65.3 54.9---
2024-07-18 01:42 am N 12.0 14.0----30.01- 59.5 65.3 54.9---
2024-07-18 01:36 amNNW 7.0 11.1----30.01- 59.4 65.3 54.9---
2024-07-18 01:30 amNNW 7.0 13.0----30.01- 59.2 65.5 54.3---
2024-07-18 01:24 amNNW 8.0 13.0----30.01- 59.2 65.5 54.3---
2024-07-18 01:18 amNNW 8.9 13.0----30.01- 59.9 65.5 55.2---
2024-07-18 01:12 am N 9.9 13.0----30.00- 60.1 65.5 55.9---
2024-07-18 01:06 am N 9.9 13.0----30.00- 60.1 65.5 55.9---
2024-07-18 01:00 am N 11.1 13.0----30.00+0.04 59.9 65.5 55.6---
2024-07-18 12:54 amNNW 8.9 13.0----30.00- 59.5 65.5 55.4---
2024-07-18 12:48 amNNW 8.9 14.0----30.00- 59.5 65.5 55.2---
2024-07-18 12:42 am N 8.9 13.0----30.00- 59.9 65.5 55.9---
2024-07-18 12:36 am N 9.9 14.0----30.00- 60.1 65.5 56.3---
2024-07-18 12:30 am N 11.1 15.0----29.99- 60.4 65.5 57.0---
2024-07-18 12:24 am N 11.1 15.0----29.99- 59.9 65.5 56.5---
2024-07-18 12:18 amNNW 9.9 13.0----29.99- 59.5 65.5 56.3---
2024-07-18 12:12 am N 8.9 13.0----29.99- 60.1 65.5 57.0---
2024-07-18 12:06 am N 9.9 12.0----29.99- 60.1 65.5 56.8---
2024-07-18 12:00 am N 9.9 14.0----29.99+0.05 60.1 65.5 56.1---
2024-07-17 11:54 pm N 11.1 14.0----29.98- 60.4 65.5 56.8---
2024-07-17 11:48 pm N 13.0 15.0----29.98- 60.4 65.7 56.7---
2024-07-17 11:42 pm N 11.1 15.9----29.98- 60.4 65.7 56.8---
2024-07-17 11:36 pm N 12.0 15.9----29.98- 60.4 65.7 57.0---
2024-07-17 11:30 pm N 11.1 17.1----29.98- 60.6 65.7 57.9---
2024-07-17 11:24 pm N 12.0 18.1----29.98- 60.8 65.7 57.9---
2024-07-17 11:18 pm N 11.1 15.9----29.98- 60.6 65.7 57.4---
2024-07-17 11:12 pm N 13.0 18.1----29.98- 60.8 65.7 57.4---
2024-07-17 11:06 pmNNW 13.0 18.1----29.98- 60.8 65.7 57.6---
2024-07-17 11:00 pm N 11.1 15.9----29.97+0.05 60.8 65.7 57.7---
2024-07-17 10:54 pmNNW 7.0 17.1----29.97- 60.4 65.7 57.6---
2024-07-17 10:48 pmNNW 8.9 14.0----29.97- 60.6 65.7 57.7---
2024-07-17 10:42 pmNNW 9.9 14.0----29.97- 60.6 65.7 57.9---
2024-07-17 10:36 pmNNW 9.9 15.9----29.97- 60.8 65.7 58.1---
2024-07-17 10:30 pm N 9.9 14.0----29.97- 60.8 65.7 58.1---
2024-07-17 10:24 pmNNW 7.0 12.0----29.97- 60.8 65.7 57.9---
2024-07-17 10:18 pmNNW 5.1 12.0----29.96- 61.0 65.7 57.7---
2024-07-17 10:12 pmNNW 5.1 11.1----29.96- 61.2 65.7 57.6---
2024-07-17 10:06 pm NW 8.0 15.0----29.96- 61.7 65.7 57.7---
2024-07-17 10:00 pmNNW 8.0 17.1----29.96- 62.2 65.7 57.7---
2024-07-17 09:54 pmNNW 11.1 15.0----29.96- 62.4 65.7 57.9---
2024-07-17 09:48 pmNNW 7.0 11.1----29.95- 62.1 65.7 57.6---
2024-07-17 09:42 pmNNW 8.9 13.0----29.95- 61.9 65.7 57.2---
2024-07-17 09:36 pmNNW 8.9 14.0----29.95- 61.7 65.7 57.0---
2024-07-17 09:30 pmNNW 8.0 12.0----29.95- 61.7 65.7 56.8---
2024-07-17 09:24 pmNNW 8.9 15.0----29.95- 61.7 65.7 56.5---
2024-07-17 09:18 pmNNW 9.9 15.0----29.94- 61.9 65.7 55.8---
2024-07-17 09:12 pmNNW 12.0 15.9----29.94- 62.2 65.7 55.0---
2024-07-17 09:06 pmNNW 11.1 14.0----29.94- 62.6 65.7 55.8---
2024-07-17 09:00 pmNNW 9.9 15.0----29.94- 62.8 65.7 55.4---
2024-07-17 08:54 pm N 12.0 17.1----29.93- 63.0 65.7 55.4---
2024-07-17 08:48 pm N 12.0 18.1----29.93- 63.3 65.7 56.3---
2024-07-17 08:42 pm N 13.0 17.1----29.93- 63.5 65.8 56.7---
2024-07-17 08:36 pm N 13.0 17.1----29.93- 63.3 65.7 56.7---
2024-07-17 08:30 pm N 14.0 19.0----29.93- 63.1 65.7 56.7---
2024-07-17 08:24 pm N 17.1 19.0----29.93- 63.0 65.5 56.1---
2024-07-17 08:18 pm N 15.9 19.0----29.92- 62.8 65.7 55.8---
2024-07-17 08:12 pm N 15.9 19.0----29.92- 62.8 65.5 55.9---
2024-07-17 08:06 pm N 15.0 19.0----29.92- 63.0 65.5 55.9---
2024-07-17 08:00 pm N 17.1 22.0----29.92+0.04 63.0 65.5 54.5---
2024-07-17 07:54 pm N 21.0 24.1----29.91- 63.7 65.5 54.7---